ATLAS 5 CENTAUR DEB, 44690

Orbit data source: Space-Track

ATLAS 5 CENTAUR DEB, 44690 is space debris in HEO originally from a launch on Wed, 17 Oct 2018 UTC launched from the Air Force Eastern Test Range (AFETR). Debris objects in space refer to the collection of defunct objects orbiting the Earth. Examples of debris include non-operational satellites, rocket bodies, and fragments generated from explosions, collisions, or faulty payload assembly.

Loading next visibility...
Identifier
44690, 2018-079BC
Orbit
HEO
Country
Flag of USUS
Related business
Flag of USUnited Launch Alliance/Lockheed Martin (US)
Manufacturer
ULA Decatur
Mission
Spacecraft
Bus & Motor
Unknown
Mass
Unknown
Launch date (UTC)
2018-10-17 (7 years ago)
Launch vehicle
Unknown
Launch site
Air Force Eastern Test Range (AFETR)
Object type
Payload
Rocket body
Debris
Shape & HBR
Unknown shape, 1.1 m
Radar Cross Section
RCS unknown

Expand to show TLE details & history
Last TLE update: 2 weeks ago

TLE from 2 weeks ago
0 ATLAS 5 CENTAUR DEB
1 44690U 18079BC  25273.99208028 -.00000128  00000-0  00000-0 0  9997
2 44690  12.7294  59.4905 4398752 275.2002  37.7251  1.88404908 42214
Epoch: 2025-09-30T23:48Z
TLE epoch observation values (Epoch: 2025-09-30T23:48:35.736Z)
Latitude
-0.00005°
Longitude
52.39482°
Altitude
15,075.605 km
Speed
4.771 km/s
True Right ascension
03h 58m 04s
True Declination
0° 00' 00"
Sunlit
Object was in daylight at epoch
Visualization orbit readout
Latitude
Unknown
Longitude
Unknown
Altitude
Unknown
Speed
Unknown
Apparent Right ascension
Unknown
Apparent Declination
Unknown
Sunlit
N/A
Visualization observer readout
Local Sidereal Time
05:35:50
Azimuth
Unknown
Elevation
Unknown
Doppler factor
Unknown
Orbital elements
Apogee altitude
33,496.562 km
Perigee altitude
9,133.49 km
Semi-major axis
27,693.163 km
Eccentricity
0.43988
Inclination
12.7294°
RAAN
59.4905°
Arg. of periapsis
275.2002°
True anomaly
84.9143°
Mean anomaly
37.7251°
Eccentric anomaly
59.42367°
Mean motion
0.47096 °/min
Orbital period
764.4 mins
BSTAR
0
Loading maneuver chart data...
Computing Atmospheric mass density...

Documentation

Showing up to 5 results
|